Tracking 19636 objects as of 24-May-2019
HD Live streaming from Space Station
objects crossing your sky now

ONEWEB-0008

Track ONEWEB-0008 now!
10-day predictions


NORAD ID: 44059
Int'l Code: 2019-010C
Perigee: 1,146.9 km
Apogee: 1,173.3 km
Inclination: 88.1 °
Period: 108.4 minutes
Semi major axis: 7531 km
RCS: Unknown
Launch date: February 27, 2019
Source: United Kingdom (UK)
Launch site: FRENCH GUIANA (FRGUI)
aabbcc
Your satellite tracking list
Your tracking list is empty




NASA's NSSDC Master Catalog

Two Line Element Set (TLE):
1 44059U 19010C   19144.11631346  .00000046  00000-0  72839-4 0  9990
2 44059  88.1389  52.0802 0017579   7.9642 352.1771 13.28361007 11598
Source of the keplerian elements: AFSPC